TimePST,TemperatureF,Dew PointF,Humidity,Sea Level PressureIn,VisibilityMPH,Wind Direction,Wind SpeedMPH,Gust SpeedMPH,PrecipitationIn,Events,Conditions,WindDirDegrees,DateUTC
12:58 AM,26.4,6.3,42,30.31,10.0,WNW,5.8,-,N/A,,Clear,300,2013-01-19 08:58:00
1:58 AM,24.8,7.3,48,30.33,10.0,WSW,6.9,-,N/A,,Clear,250,2013-01-19 09:58:00
2:58 AM,24.8,5.5,44,30.32,10.0,SW,4.6,-,N/A,,Clear,230,2013-01-19 10:58:00
3:58 AM,23.0,6.6,50,30.32,10.0,West,3.5,-,N/A,,Clear,260,2013-01-19 11:58:00
4:58 AM,24.6,7.2,48,30.32,10.0,WSW,3.5,-,N/A,,Clear,250,2013-01-19 12:58:00
5:58 AM,24.1,7.5,49,30.34,10.0,Variable,1.2,-,N/A,,Clear,0,2013-01-19 13:58:00
7:58 AM,25.7,6.6,44,30.37,10.0,WNW,2.3,-,N/A,,Clear,300,2013-01-19 15:58:00
8:58 AM,30.2,8.4,40,30.38,10.0,NNE,1.2,-,N/A,,Clear,20,2013-01-19 16:58:00
9:58 AM,37.2,9.9,32,30.39,10.0,NNE,2.3,-,N/A,,Clear,20,2013-01-19 17:58:00
10:58 AM,45.0,9.7,24,30.36,10.0,North,1.2,-,N/A,,Clear,10,2013-01-19 18:58:00
11:58 AM,49.3,11.3,22,30.32,10.0,Calm,Calm,-,N/A,,Clear,0,2013-01-19 19:58:00
2:55 PM,62.6,3.2,9,30.27,10.0,Calm,Calm,-,N/A,,Clear,0,2013-01-19 22:55:00
3:55 PM,59.0,3.2,11,30.26,10.0,Calm,Calm,-,N/A,,Clear,0,2013-01-19 23:55:00
4:54 PM,55.4,6.8,14,30.26,10.0,South,6.9,-,N/A,,Clear,180,2013-01-20 00:54:00
7:40 PM,37.4,6.8,28,30.32,10.0,Calm,Calm,-,N/A,,Clear,0,2013-01-20 03:40:00
7:59 PM,35.6,5.0,28,30.31,10.0,South,3.5,-,N/A,,Clear,180,2013-01-20 03:59:00
8:55 PM,33.8,5.0,30,30.32,10.0,Calm,Calm,-,N/A,,Clear,0,2013-01-20 04:55:00
9:54 PM,32.0,6.8,35,30.30,10.0,WSW,2.3,-,N/A,,Clear,250,2013-01-20 05:54:00
9:55 PM,32.0,6.8,35,30.31,10.0,Calm,Calm,-,N/A,,Clear,0,2013-01-20 05:55:00
10:54 PM,32.0,6.8,35,30.30,10.0,South,2.3,-,N/A,,Clear,180,2013-01-20 06:54:00
10:55 PM,30.2,6.8,37,30.30,10.0,Calm,Calm,-,N/A,,Clear,0,2013-01-20 06:55:00
11:58 PM,30.0,7.2,38,30.30,10.0,WSW,2.3,-,N/A,,Clear,240,2013-01-20 07:58:00